Location: Unspecified
(0.0000°N, 0.0000°E)
Time: 08:12:19
(UTC+00:00)

Vanguard 1 Rocket - Pass Details

Date: 02 December 2022
Orbit: 651 x 4224 km, 34.3° (Epoch: 04 February)

Event Time Altitude Azimuth Distance (km) Brightness Sun altitude
Rises 23:58:46 0° 230° (SW) 6,888 12.0 -68.0°
Reaches altitude 10° 00:04:14 10° 228° (SW) 5,289 11.3 -67.8°
Enters shadow 00:06:18 15° 226° (SW) 4,651 11.0 -67.7°
